Kalamazoo, MI

12:37 AM EDT on October 17, 2017 (GMT -0400)
Kalamazoo-Battle Creek International

Weather History for KAZO - January, 2014

Change the Weather History Date:

Wednesday, January 1, 2014

  Actual Average Record
Temperature  
Mean Temperature 16 °F 25 °F  
Max Temperature 19 °F 31 °F 54 °F (2011)
Min Temperature 12 °F 19 °F -7 °F (1968)
Degree Days  
Heating Degree Days 50 40  
Month to date heating degree days 40  
Since 1 July heating degree days 2507 2491  
Cooling Degree Days 0 0  
Month to date cooling degree days 0  
Year to date cooling degree days 0  
Moisture  
Dew Point -4 °F    
Average Humidity 43    
Maximum Humidity 62    
Minimum Humidity 22    
Precipitation  
Precipitation 0.00 in 0.07 in 1.73 in (1985)
Month to date precipitation 0.07  
Year to date precipitation 0.07  
Sea Level Pressure  
Sea Level Pressure 30.26 in    
Wind  
Wind Speed 12 mph (NE)    
Max Wind Speed 16 mph    
Max Gust Speed -    
Visibility 2 miles    
Events Snow    
T = Trace of Precipitation, MM = Missing Value Source: NWS Daily Summary

Daily Weather History Graph

Daily Weather History Graph

Search for Another Location

Airport or City:

Trip Planner

Search our weather history database for the weather conditions in past years. The results will help you decide how hot, cold, wet, or windy it might be!

Date:

Astronomy

Jan. 01, 2014 Rise Set
Actual Time 8:11 AM EST 5:20 PM EST
Civil Twilight 7:39 AM EST 5:52 PM EST
Nautical Twilight 7:04 AM EST 6:27 PM EST
Astronomical Twilight 6:30 AM EST 7:01 PM EST
Moon 7:59 AM EST (1/1) 6:06 PM EST (1/1)
Length of Visible Light 10h 13m
Length of Day
9h 09m
New Moon, 0% of the Moon is Illuminated
Jan 1
New Moon
Jan 7
First Quarter
Jan 15
Full
Jan 24
Last Quarter
Jan 30
New

Hourly Weather History & Observations

Time (EST) Temp. Windchill Dew Point Humidity Pressure Visibility Wind Dir Wind Speed Gust Speed Precip Events Conditions
12:53 AM - - - N/A% 30.28 in - North - - N/A   Unknown
1:53 AM - - - N/A% 30.26 in - North - - N/A   Unknown
2:53 AM - - - N/A% 30.28 in - North - - N/A   Unknown
3:53 AM - - - N/A% 30.28 in - North - - N/A   Unknown
4:53 AM - - - N/A% 30.27 in - North - - N/A   Unknown
5:53 AM - - - N/A% 30.29 in - North - - N/A   Unknown
6:53 AM - - - N/A% 30.29 in 7.0 mi NE 11.5 mph - N/A   Unknown
7:53 AM - - - N/A% 30.30 in 7.0 mi NE 11.5 mph - N/A   Unknown
8:00 AM - - - N/A% 30.30 in 1.5 mi NE 11.5 mph - N/A   Unknown
8:53 AM - - - N/A% 30.30 in 1.0 mi NE 11.5 mph - N/A   Unknown
9:53 AM - - - N/A% 30.31 in 1.0 mi NE 11.5 mph - N/A   Unknown
10:53 AM - - - N/A% 30.33 in 1.0 mi NE 11.5 mph - N/A   Unknown
11:16 AM 14.0 °F 0.5 °F 3.2 °F 62% 30.33 in 0.8 mi NE 11.5 mph - N/A Snow Light Snow
11:53 AM 14.9 °F -0.3 °F 2.8 °F 59% 30.30 in 0.8 mi NNE 15.0 mph - N/A Snow Light Snow
12:53 PM 15.8 °F 2.7 °F -4.0 °F 41% 30.27 in 1.0 mi NE 11.5 mph - N/A Snow Light Snow
1:53 PM 15.8 °F 2.1 °F -7.6 °F 35% 30.26 in 1.0 mi NE 12.7 mph - N/A Snow Light Snow
2:20 PM 15.8 °F 2.1 °F -4.0 °F 41% 30.25 in 0.8 mi NE 12.7 mph - N/A Snow Light Snow
2:23 PM 15.8 °F 2.1 °F -4.0 °F 41% 30.25 in 1.0 mi NE 12.7 mph - N/A Snow Light Snow
2:53 PM 19.4 °F 7.2 °F -2.2 °F 39% 30.24 in 1.0 mi NNE 11.5 mph - N/A Snow Light Snow
3:26 PM 17.6 °F 5.0 °F -4.0 °F 38% 30.24 in 1.2 mi NNE 11.5 mph - N/A Snow Light Snow
3:53 PM 17.6 °F 5.0 °F -4.0 °F 38% 30.24 in 1.0 mi NNE 11.5 mph - N/A Snow Light Snow
4:53 PM 19.4 °F 6.0 °F -4.0 °F 36% 30.24 in 1.0 mi NNE 13.8 mph - N/A Snow Light Snow
5:00 PM - - - N/A% 30.24 in - North - - N/A   Unknown
5:07 PM 17.6 °F 3.7 °F -4.0 °F 38% 30.24 in 1.0 mi NNE 13.8 mph - N/A Snow Light Snow
5:53 PM 17.6 °F 3.7 °F -4.0 °F 38% 30.24 in 1.0 mi NNE 13.8 mph - N/A Snow Light Snow
6:53 PM 14.0 °F -2.0 °F -18.4 °F 22% 30.24 in 1.0 mi NE 16.1 mph - N/A Snow Light Snow
7:53 PM 12.2 °F -1.8 °F -5.8 °F 45% 30.24 in 1.0 mi NE 11.5 mph - N/A Snow Light Snow
8:42 PM 12.2 °F -3.1 °F -4.0 °F 48% 30.23 in 2.0 mi NE 13.8 mph - N/A Snow Light Snow
8:53 PM 12.2 °F -3.1 °F -0.4 °F 57% 30.23 in 3.0 mi NE 13.8 mph - N/A Snow Light Snow
9:53 PM 12.2 °F -3.1 °F -0.4 °F 57% 30.21 in 3.0 mi NE 13.8 mph - N/A Snow Light Snow
10:36 PM - - - N/A% 30.20 in - North - - N/A   Unknown
10:53 PM - - - N/A% 30.19 in - North - - N/A   Unknown
11:53 PM - - - N/A% 30.18 in - North - - N/A   Unknown